Regional Weather Roundup
Issued by NWS

Home | Current Version | Previous Version | Text Only | Print | Product List | Glossary Off
Versions: 1 2 3 4 5 6 7 8 9 10 11 12 13 14 15 16 17 18 19 20 21 22 23 24 25 26 27 28 29 30 31 32 33 34 35 36 37 38 39 40 41 42 43 44 45 46 47 48 49 50

018
ASUS43 KMKX 202100
RWRWI

WISCONSIN REGIONAL WEATHER ROUNDUP
NATIONAL WEATHER SERVICE MILWAUKEE/SULLIVAN WI
300 PM CST MON FEB 20 2017

NOTE: "FAIR" INDICATES FEW OR NO CLOUDS BELOW 12,000 FEET WITH NO
SIGNIFICANT WEATHER AND/OR OBSTRUCTIONS TO VISIBILITY.

WIZ001-002-006>008-014>016-023>028-202200-
NORTHWEST WISCONSIN

CITY           SKY/WX    TMP DP  RH WIND       PRES   REMARKS
SUPERIOR ARPT  RAIN      35  35  99 E13G18    29.71F WCI  27
ASHLAND        LGT RAIN  49  44  83 SE7G21    29.70F
HAYWARD        RAIN      48  45  89 S15G26    29.72R FOG
SIREN          LGT RAIN  46  45  95 SE13      29.68F
CUMBERLAND     RAIN      43  43 100 SE13G18   29.72F
RICE LAKE      RAIN      45  44  96 SE13      29.74S
CHETEK         HVY RAIN  45  45  99 SE13G21   29.75F
LADYSMITH      LGT RAIN  47  45  92 SE14G23   29.75F
EAU CLAIRE     NOT AVBL
MENOMONIE      RAIN      47  47  99 E8        29.71F VSB 1/4
NEW RICHMOND   RAIN      49  49 100 S10       29.68F
OSCEOLA        RAIN      48  48 100 SE12      29.71F
$$

WIZ003>005-009-010-017-018-202200-
NORTH CENTRAL WISCONSIN

CITY           SKY/WX    TMP DP  RH WIND       PRES   REMARKS
MANITOWISH WTR CLOUDY    48  39  69 SE10G18   29.81F
ARBOR VITAE    CLOUDY    52  41  67 SE16      29.84S
WOODRUFF       CLOUDY    52  41  67 SE16      29.84S
RHINELANDER    CLOUDY    49  42  77 SE16G25   29.84F
EAGLE RIVER    CLOUDY    49  37  61 SE12G23   29.86F
LAND O LAKES   CLOUDY    50  38  62 S15G25    29.87F
PHILLIPS       RAIN      45  45  99 SE13G22   29.76F
TOMAHAWK       CLOUDY    47  41  79 SE5       29.84F
MEDFORD        CLOUDY    46  41  83 SE10G21   29.79F
MERRILL        NOT AVBL
$$

WIZ029-030-035-036-043>047-202200-
CENTRAL WISCONSIN

CITY           SKY/WX    TMP DP  RH WIND       PRES   REMARKS
WAUSAU         CLOUDY    47  40  76 SE14      29.83F
MOSINEE        CLOUDY    48  45  87 E14G22    29.85F
MARSHFIELD     CLOUDY    48  43  82 SE10      29.82S HAZE
STEVENS POINT  CLOUDY    48  42  79 E12G17    29.87F
WAUPACA        CLOUDY    55  45  70 E14       29.90F
WAUTOMA        CLOUDY    57  50  77 SE14      29.88F
WISC RAPIDS    CLOUDY    56  49  77 S9G21     29.85F
CAMP DOUGLAS   DRIZZLE   57  50  77 SE9       29.84R
$$

WIZ011>013-019>022-031-037>040-048>050-202200-
NORTHEAST WISCONSIN

CITY           SKY/WX    TMP DP  RH WIND       PRES   REMARKS
ANTIGO         CLOUDY    44  38  81 SE20      29.91F
SHAWANO        CLOUDY    51  43  73 SE12G17   29.94F
OCONTO         CLOUDY    47  35  62 SE8       30.00F
STURGEON BAY   CLOUDY    50  34  54 SE13G22   30.01F
GREEN BAY      CLOUDY    51  44  77 SE20G30   29.98F
MANITOWOC      NOT AVBL
APPLETON       PTSUNNY   48  39  71 SE17      29.93F
CLINTONVILLE   PTSUNNY   50  41  71 SE12      29.91F
OSHKOSH        CLOUDY    51  44  77 SE16      29.93F
$$

WIZ032>034-041-042-053>061-202200-
SOUTHWEST WISCONSIN

CITY           SKY/WX    TMP DP  RH WIND       PRES   REMARKS
LA CROSSE      LGT RAIN  55  52  89 S16       29.77F FOG
SPARTA         RAIN      55  52  91 SE14      29.81F
VIROQUA        CLOUDY    53  51  95 SE16      29.81F
BOSCOBEL       RAIN      58  53  84 SE5       29.84F
PRAIRIE DU CHI RAIN      53  51  95 SE10      29.83R
PLATTEVILLE    CLOUDY    59  54  83 SE14      29.86F
$$

WIZ056-057-062-063-064-067-068-202200-
SOUTH CENTRAL WISCONSIN

CITY           SKY/WX    TMP DP  RH WIND       PRES   REMARKS
REEDSBURG      RAIN      59  51  75 SE8       29.86S
BARABOO/DELLS  CLOUDY    57  48  71 SE16      29.86F
LONE ROCK      NOT AVBL
MINERAL POINT  CLOUDY    61  54  77 SE14G21   29.85F
MADISON        CLOUDY    61  50  67 S21G28    29.89F
MIDDLETON      CLOUDY    63  51  66 S16G23    29.88F
WATERTOWN      PTSUNNY   61  50  68 SE8       29.93F
MONROE         CLOUDY    61  52  72 SE18G24   29.89F
JANESVILLE     PTSUNNY   66  52  59 SE15G21   29.92F
$$

WIZ051-052-058>065-066-070>072-202200-
SOUTHEAST WISCONSIN

CITY           SKY/WX    TMP DP  RH WIND       PRES   REMARKS
MILWAUKEE      CLOUDY    52  42  69 SE15      29.99F
WAUKESHA       PTSUNNY   55  45  67 SE16      29.98F
MILWAUKEE/TIMM CLOUDY    55  43  62 SE16      30.00F
RACINE         CLOUDY    52  41  66 SE15G24   30.01F
KENOSHA        CLOUDY    58  44  60 SE14G25   29.98F
FOND DU LAC    CLOUDY    53  44  71 SE16      29.94F
SHEBOYGAN      CLOUDY    48  38  68 SE14      30.00F
WEST BEND      CLOUDY    52  45  76 SE12G20   29.98F
JUNEAU         CLOUDY    58  49  71 SE14      29.95S
$$

LSZ147-162-202200-
LAKE SUPERIOR

STATION/POSITION TIME  TEMP    WIND        PRES    WAVE
                       AIR SEA DIR/SP/G            HT/PER
                 (UTC) (F)     (DEG/KT/KT) (MB)    (FT/S)
DEVILS ISLAND    2000   37      50/ 11/ 12 1008.4F
PORT WING        2040   35      40/  6/  8 1006.4F
SAXON HARBOR     2030   54     180/  7/ 13 1006.8F
$$

LMZ867-665-643>646-202200-
LAKE MICHIGAN

STATION/POSITION TIME  TEMP    WIND        PRES    WAVE
                       AIR SEA DIR/SP/G            HT/PER
                 (UTC) (F)     (DEG/KT/KT) (MB)    (FT/S)
CHAMBERS ISLAND  2040   48     120/  8/ 11 1016.6F
NORTHPORT PIER   2040   39     150/  8/  9 1017.6F
SISTER BAY       2035   48     140/ 15/ 19   N/A
KEWAUNEE LAKESHO 2030   40     170/  5/  6 1016.4F
SHEBOYGAN LAKESH 2000   40     180/ 10/ 11 1017.6F
PORT WASHINGTON  2030   43     140/  2/  5 1017.6F
MILWAUKEE LAKESH 2030   41     130/  6/  8   N/A
KENOSHA   LAKESH 2000   45     170/ 10/ 20 1016.6
$$

TC  - TEMPERATURE IN CELSIUS
VSB - VISIBILITY IN STATUTE MILES
WCI - WIND CHILL INDEX
HX  - HEAT INDEX





USA.gov is the U.S. government's official web portal to all federal, state and local government web resources and services.